Location: Fort Worth, Tx
(32.7431°N, 97.3695°W)
Time: 16:13:36
(UTC-04:00)

FO-99 - Visible Passes

Search period start: 30 March 2023 00:00
Search period end: 09 April 2023 00:00
Orbit: 422 x 443 km, 97.1° (Epoch: 30 March)

Date Brightness Start Highest point End Pass type
(mag) Time Alt. Az. Time Alt. Az. Time Alt. Az.
30 Mar ? 21:23:44 10° SSE 21:27:04 71° ENE 21:30:24 10° N visible
31 Mar ? 22:16:57 10° SW 22:19:12 17° W 22:21:27 10° NW visible
01 Apr ? 21:35:23 10° S 21:38:41 72° WSW 21:42:02 10° NNW visible
02 Apr ? 22:29:28 10° WSW 22:30:40 12° W 22:31:52 10° WNW visible
03 Apr ? 21:46:40 10° S 21:49:53 46° W 21:53:05 10° NNW visible
05 Apr ? 21:57:38 10° SSW 22:00:36 30° W 22:03:35 10° NNW visible
06 Apr ? 21:16:25 10° SSE 21:19:38 53° ENE 21:22:51 10° N visible
07 Apr ? 22:08:16 10° SSW 22:10:53 21° W 22:13:30 10° NW visible
08 Apr ? 21:26:21 10° SSE 21:29:38 80° ENE 21:32:55 10° N visible
